#timestamp,LO_Frequency,Hit,StdDev 
1530252015.8,286046999.8,N
1530252035.6,286046999.7,N
1530252055.4,286047002.5,N
1530252075.3,286047002.7,N
1530252095.1,286046999.9,N
1530252115.8,286047000.1,N
1530252135.7,286047000.3,N
1530252155.5,286047000.4,N
1530252175.4,286046999.9,N
1530252195.2,286047002.1,N
1530252215.0,286047002.3,N
1530252215.9,286047002.3,N
1530252235.8,286046999.7,N
1530252255.6,286047001.9,N
1530252275.4,286047002.0,N
1530252295.3,286047002.7,N
1530252315.1,286046999.7,N
1530252335.9,286047000.2,N
1530252355.7,286047002.3,N
1530252375.5,286047001.9,N
1530252395.4,286047001.5,N
1530252415.2,286047002.1,N
1530252435.1,286047002.0,N
1530252436.0,286047002.0,N
1530252455.8,286047001.4,N
1530252475.6,286047001.9,N
1530252495.5,286047001.4,N
1530252515.3,286047001.4,N
1530252535.2,286047004.3,Y
1530252555.9,286047001.6,P
1530252575.7,286047002.3,P
1530252595.6,286047002.1,P
1530252615.4,286047002.8,Y
1530252635.2,286046999.4,P
1530252655.1,286046998.2,N
1530252656.0,286046998.2,N
1530252675.8,286047002.6,N
1530252695.7,286047002.7,N
1530252715.5,286047000.0,N
1530252735.3,286046998.8,N
1530252755.2,286046998.9,N
1530252775.0,286046998.7,N
1530252775.9,286046998.7,N
1530252795.7,286046999.3,N
1530252815.6,286046998.8,N
1530252835.4,286046999.3,N
1530252855.3,286046999.5,N
1530252875.1,286046997.7,N
1530252876.0,286046997.7,N
1530252895.8,286046999.1,N
1530252915.7,286046998.9,N
1530252935.5,286046998.7,N
1530252955.3,286046999.3,N
1530252975.2,286046999.2,N
1530252995.0,286046999.3,N
1530252995.9,286046999.3,N
1530253015.8,286046999.1,N
1530253035.6,286046999.2,N
1530253055.4,286046998.9,N
1530253075.3,286046997.0,N
1530253095.1,286046997.0,N
1530253115.8,286046999.4,N
1530253135.7,286046998.9,N
1530253155.5,286046999.6,N
1530253175.4,286046999.3,N
1530253195.2,286046998.1,N
1530253215.0,286046998.4,N
1530253215.9,286046998.4,N
1530253235.8,286046999.9,N
1530253255.6,286046998.9,N
1530253275.4,286046999.4,N
1530253295.3,286046998.6,N
1530253315.1,286047000.9,N
1530253335.9,286046999.4,N
1530253355.7,286047000.8,N
1530253375.5,286046998.6,N
1530253395.4,286047000.5,N
1530253415.2,286046998.6,N
1530253435.0,286046998.3,N
1530253435.9,286046998.3,N
1530253455.8,286046998.3,N
1530253475.6,286046998.4,N
1530253495.5,286047001.0,N
1530253515.3,286046999.1,N
1530253535.1,286046996.9,Y
1530253555.9,286046998.1,P
1530253575.7,286047002.8,P
1530253595.6,286047001.0,N
1530253615.4,286046999.8,N
1530253635.2,286046999.9,N
1530253655.1,286047002.3,N
1530253656.0,286047002.3,N
1530253675.8,286047000.2,N
1530253695.7,286047001.7,N
1530253715.5,286047006.1,Y
1530253735.3,286047010.0,P
1530253755.2,286047007.0,N
1530253775.0,286047007.6,N
1530253775.9,286047007.6,N
1530253795.7,286047006.6,N
1530253815.6,286047004.8,N
1530253835.4,286047005.6,N
1530253855.3,286047005.7,N
1530253875.1,286047004.8,N
1530253895.8,286047005.4,N
1530253915.7,286047003.7,N
1530253935.5,286047005.5,N
1530253955.4,286047001.4,N
1530253975.2,286047003.2,N
1530253995.0,286047003.6,N
1530253995.9,286047003.6,N
1530254015.8,286047002.9,N
1530254035.6,286047004.4,N
1530254055.4,286047004.1,N
1530254075.3,286047002.1,N
1530254095.1,286047001.4,N
1530254115.9,286047002.1,N
1530254135.7,286047002.6,N
1530254155.5,286047001.5,N
1530254175.4,286047002.8,N
1530254195.2,286046999.9,N
1530254215.0,286047000.9,N
1530254215.9,286047000.9,N
1530254235.8,286047000.5,N
1530254255.6,286046999.7,N
1530254275.5,286047000.0,N
1530254295.3,286047000.0,N
1530254315.1,286047001.6,N
1530254335.9,286047002.4,N
1530254355.7,286047002.1,N
1530254375.5,286046999.9,N
1530254395.4,286047002.7,N
1530254415.2,286047001.0,N
1530254435.0,286046999.8,N
1530254436.0,286046999.8,N
1530254455.8,286047000.4,N
1530254475.6,286047000.2,N
1530254495.5,286047002.6,N
1530254515.3,286047002.7,N
1530254535.1,286047001.0,N
1530254555.9,286047002.3,N
1530254575.7,286046999.7,N
1530254595.6,286046998.4,N
1530254615.4,286046998.6,N
1530254635.2,286046998.5,N
1530254655.1,286046998.4,N
1530254656.0,286046998.4,N
1530254675.8,286047001.1,N
1530254695.6,286047000.7,N
1530254715.5,286046998.3,N
1530254735.3,286047000.8,N
1530254755.2,286047000.6,N
1530254775.9,286047000.3,N
1530254795.7,286047001.1,N
1530254815.6,286047000.8,N
1530254835.4,286047002.2,N
1530254855.2,286047000.2,N
1530254875.1,286047000.2,N
1530254876.0,286047000.2,N
1530254895.8,286047000.4,N
1530254915.7,286047000.5,N
1530254935.5,286047002.3,N
1530254955.3,286047001.9,N
1530254975.2,286046999.8,N
1530254995.0,286047000.0,N
1530254995.9,286047000.0,N
1530255015.8,286047000.4,N
1530255035.6,286047000.0,N
1530255055.4,286047002.7,N
1530255075.3,286047000.2,N
1530255095.1,286047000.0,N
1530255115.8,286046999.7,N
1530255135.7,286047002.1,N
1530255155.5,286047002.8,N
1530255175.4,286047002.0,N
1530255195.2,286046999.8,N
1530255215.0,286047002.2,N
1530255215.9,286047002.2,N
1530255235.8,286047001.4,N
1530255255.6,286047001.6,N
1530255275.5,286046998.5,N
1530255295.3,286047000.6,N
1530255315.3,286047002.3,N
1530255335.2,286047002.7,N
1530255355.9,286047000.4,N
1530255375.7,286047000.6,N
1530255395.6,286047001.0,N
1530255415.4,286047001.8,N
1530255435.3,286047000.5,N
1530255455.1,286047001.1,N
1530255456.0,286047001.1,N
1530255475.8,286046999.9,N
1530255495.7,286047001.4,N
1530255515.5,286047002.5,N
1530255535.3,286047002.5,N
1530255555.2,286046999.8,N
1530255575.0,286047002.8,N
1530255575.9,286047002.8,N
1530255595.8,286047002.4,N
